St. Paul, MN

9:41 PM CDT on May 26, 2017 (GMT -0500)
Saint Paul Downtown-Holman

Weather History for KSTP - January, 2014

Change the Weather History Date:

Wednesday, January 1, 2014

  Actual Average Record
Temperature  
Mean Temperature -4 °F -  
Max Temperature 1 °F 24 °F 43 °F (1998)
Min Temperature -8 °F 10 °F -8 °F (2014)
Degree Days  
Heating Degree Days 68    
Moisture  
Dew Point -12 °F    
Average Humidity 62    
Maximum Humidity 65    
Minimum Humidity 59    
Precipitation  
Precipitation 0.00 in - - ()
Sea Level Pressure  
Sea Level Pressure 30.51 in    
Wind  
Wind Speed 6 mph (NNE)    
Max Wind Speed 9 mph    
Max Gust Speed -    
Visibility 10 miles    
Events      
Averages and records for this station are not official NWS values.
T = Trace of Precipitation, MM = Missing Value Source: NWS Daily Summary

Daily Weather History Graph

Daily Weather History Graph

Search for Another Location

Airport or City:

Trip Planner

Search our weather history database for the weather conditions in past years. The results will help you decide how hot, cold, wet, or windy it might be!

Date:

Astronomy

Jan. 01, 2014 Rise Set
Actual Time 7:50 AM CST 4:41 PM CST
Civil Twilight 7:16 AM CST 5:15 PM CST
Nautical Twilight 6:39 AM CST 5:52 PM CST
Astronomical Twilight 6:04 AM CST 6:27 PM CST
Moon 7:38 AM CST (1/1) 5:30 PM CST (1/1)
Length of Visible Light 9h 58m
Length of Day
8h 51m
New Moon, 0% of the Moon is Illuminated
Jan 1
New Moon
Jan 7
First Quarter
Jan 15
Full
Jan 23
Last Quarter
Jan 30
New

Hourly Weather History & Observations

Time (CST) Temp. Windchill Dew Point Humidity Pressure Visibility Wind Dir Wind Speed Gust Speed Precip Events Conditions
12:53 AM -8.0 °F -25.0 °F -18.0 °F 61% 30.49 in 10.0 mi NNE 9.2 mph - N/A   Overcast
1:53 AM -8.0 °F -21.0 °F -18.0 °F 61% 30.49 in 10.0 mi NE 5.8 mph - N/A   Overcast
2:53 AM -7.1 °F -19.9 °F -18.0 °F 59% 30.50 in 10.0 mi ENE 5.8 mph - N/A   Overcast
3:53 AM -7.1 °F -21.4 °F -17.0 °F 62% 30.49 in 10.0 mi NE 6.9 mph - N/A   Overcast
4:53 AM -7.1 °F -21.4 °F -17.0 °F 62% 30.48 in 10.0 mi NE 6.9 mph - N/A   Overcast
5:53 AM -6.0 °F -18.6 °F -16.1 °F 62% 30.50 in 10.0 mi NE 5.8 mph - N/A   Overcast
6:53 AM -5.1 °F -17.6 °F -15.0 °F 62% 30.51 in 10.0 mi NNE 5.8 mph - N/A   Overcast
7:53 AM -5.1 °F -19.1 °F -15.0 °F 62% 30.53 in 10.0 mi NE 6.9 mph - N/A   Overcast
8:53 AM -5.1 °F -15.8 °F -14.1 °F 65% 30.55 in 10.0 mi NNE 4.6 mph - N/A   Overcast
9:53 AM -2.9 °F -13.3 °F -13.0 °F 62% 30.56 in 10.0 mi North 4.6 mph - N/A   Overcast
10:53 AM -0.9 °F - -11.0 °F 62% 30.56 in 10.0 mi Calm Calm - N/A   Overcast
11:53 AM -0.0 °F - -11.0 °F 60% 30.53 in 10.0 mi Calm Calm - N/A   Overcast
12:53 PM 1.0 °F -8.7 °F -9.0 °F 63% 30.51 in 10.0 mi North 4.6 mph - N/A   Overcast
1:53 PM 1.9 °F -9.2 °F -9.0 °F 60% 30.50 in 10.0 mi North 5.8 mph - N/A   Overcast
2:53 PM 1.9 °F -10.6 °F -9.0 °F 60% 30.50 in 10.0 mi North 6.9 mph - N/A   Overcast
3:53 PM 1.9 °F -9.2 °F -8.0 °F 63% 30.50 in 10.0 mi North 5.8 mph - N/A   Overcast
4:53 PM 1.0 °F -12.9 °F -9.0 °F 63% 30.50 in 10.0 mi North 8.1 mph - N/A   Overcast
5:53 PM -0.0 °F -11.6 °F -9.9 °F 63% 30.52 in 10.0 mi NNW 5.8 mph - N/A   Overcast
6:53 PM -0.0 °F -13.0 °F -9.9 °F 63% 30.54 in 10.0 mi North 6.9 mph - N/A   Overcast
7:53 PM 1.0 °F -10.3 °F -9.9 °F 60% 30.53 in 10.0 mi North 5.8 mph - N/A   Overcast
8:53 PM -0.0 °F -11.6 °F -9.9 °F 63% 30.51 in 10.0 mi North 5.8 mph - N/A   Overcast
9:53 PM -0.0 °F -11.6 °F -9.9 °F 63% 30.52 in 10.0 mi North 5.8 mph - N/A   Overcast
10:53 PM -0.0 °F -11.6 °F -9.9 °F 63% 30.51 in 10.0 mi NNW 5.8 mph - N/A   Overcast
11:53 PM -0.0 °F -14.2 °F -9.9 °F 63% 30.51 in 10.0 mi NNW 8.1 mph - N/A   Overcast